Location: Bartshausen
(51.8454°N, 9.8167°E)
Time: 22:15:43
(UTC+00:00)

Iridium 4 Rocket - Pass Details

Date: 22 February 2026
Orbit: 579 x 887 km, 86.9° (Epoch: 11 March)

Event Time Altitude Azimuth Distance (km) Brightness Sun altitude
Rises 18:24:47 0° 359° (N) 2,996 6.6 -15.6°
Reaches altitude 10° 18:27:09 10° 3° (N) 2,037 5.7 -16.0°
Maximum altitude 18:31:32 56° 83° (E) 724 3.0 -16.7°
Drops below altitude 10° 18:35:38 10° 162° (SSE) 1,912 5.3 -17.3°
Enters shadow 18:36:52 - 165° (SSE) 2,409 5.9 -17.5°
